Torna al catalogo

ION SCV-017

AttivoScienzaSSO
NORAD 63230·PAYLOAD·🇮🇹 Italy

Lanciato Mar 15, 2025 da Vandenberg Space Force Base

Loading…

Prossimi Passaggi (prossime 24 ore)

TLE

AggiornatoSource: Space-Track

Epoca: Sep 14, 2026, 16:20 UTC

1 63230U 25052W   26257.68116594  .00003563  00000-0  13052-3 0  9991
2 63230  97.3769 152.0653 0023452  92.7182 267.6743 15.28413477 83709

Traccia ION SCV-017 in tempo reale con AllMySat

Download on the App Store